Flag for Russia Weather past 2 weeks in Surgut, Russia

Now
28 °F

Sunny.


Feels Like: 28 °F
Forecast: -5 / 20 °F
Wind: 1 mph from North

Location: Surgut Airport

Current Time: Mar 4, 2015 at 2:03:38 PM

Latest Report: Mar 4, 2015 at 1:30 PM


Visibility: 4 mi

Pressure: 30.21 "Hg

Humidity: 93%

Dew point: 27 °F

Location of SurgutLocation

Historic Weather in Surgut — Graph

°F

Surgut temperature yesterday

Maximum temperature yesterday: 30 °F (at 1:00 PM)
Minimum temperature yesterday: 10 °F (at 11:30 PM)
Average temperature yesterday: 24 °F

Past Weeks' High & Low Weather Summary

 TemperatureHumidityPressure
High32 °F (Feb 24, 11:30 AM)100% (Feb 24, 8:00 AM)30.39 "Hg (Feb 24, 8:00 AM)
Low-35 °F (Feb 18, 3:00 AM)52% (Feb 20, 10:30 PM)29.62 "Hg (Feb 22, 3:00 AM)
Average14 °F84%30.09 "Hg
* Reported Feb 17 1:00 PM — Mar 4 1:00 PM, Surgut, Weather by CustomWeather, © 2015

Note: Actual official high and low records may vary slightly from our data, if they occured in-between our weather recording intervals... More about our weather records

Advertising

Surgut weather history for previous 24 hours

 ConditionsComfort  
Time TempWeatherWind HumidityBarometerVisibility
1:00 PM
Wed, Mar 4
28 °FSunny.No wind93%30.21 "Hg4 mi
12:30 PM27 °FSunny.No wind100%30.21 "Hg4 mi
12:00 PM25 °FSunny.1 mph93%30.21 "Hg4 mi
11:30 AM25 °FIce fog.No wind93%30.21 "Hg3 mi
11:00 AM21 °FIce fog.No wind93%30.21 "Hg3 mi
10:30 AM19 °FIce fog.No wind93%30.21 "Hg1 mi
10:00 AM18 °FIce fog.No wind93%30.21 "Hg0 mi
9:30 AM16 °FIce fog.No wind93%30.21 "Hg0 mi
8:30 AM12 °FIce fog.No wind92%30.21 "Hg0 mi
8:00 AM10 °FIce fog.No wind92%30.21 "Hg0 mi
7:30 AM10 °FIce fog.No wind85%30.21 "Hg0 mi
7:00 AM12 °FIce fog.1 mph85%30.21 "Hg0 mi
6:30 AM10 °FIce fog.3 mph92%30.21 "Hg0 mi
6:00 AM10 °FIce fog.No wind92%30.21 "Hg1 mi
5:30 AM12 °FPartly cloudy.No wind85%30.21 "Hg4 mi
5:00 AM14 °FPartly cloudy.1 mph92%30.21 "Hg4 mi
4:30 AM12 °FPassing clouds.No wind92%30.24 "Hg4 mi
4:00 AM12 °FPartly cloudy.1 mph92%30.24 "Hg4 mi
3:30 AM10 °FPartly cloudy.No wind85%30.21 "Hg4 mi
3:00 AM10 °FPassing clouds.1 mph92%30.24 "Hg4 mi
2:30 AM10 °FClear.No wind85%30.24 "Hg4 mi
2:00 AM9 °FClear.1 mph85%30.24 "Hg4 mi
1:30 AM12 °FClear.1 mph92%30.24 "Hg4 mi
12:30 AM12 °FClear.3 mph92%30.24 "Hg4 mi
12:00 AM12 °FClear.3 mph92%30.24 "Hg4 mi
11:30 PM
Tue, Mar 3
10 °FClear.3 mph85%30.24 "Hg4 mi
11:00 PM16 °FClear.3 mph93%30.24 "Hg4 mi
10:30 PM18 °FClear.3 mph93%30.24 "Hg4 mi
10:00 PM18 °FClear.6 mph93%30.24 "Hg4 mi
9:30 PM18 °FClear.6 mph93%30.24 "Hg4 mi
9:00 PM19 °FClear.6 mph93%30.24 "Hg4 mi
8:30 PM19 °FClear.6 mph93%30.24 "Hg4 mi
8:00 PM18 °FClear.6 mph93%30.24 "Hg4 mi
7:30 PM19 °FClear.6 mph86%30.24 "Hg4 mi
7:00 PM19 °FPassing clouds.8 mph86%30.24 "Hg4 mi
6:30 PM23 °FScattered clouds.8 mph80%30.24 "Hg4 mi
6:00 PM23 °FScattered clouds.8 mph80%30.24 "Hg4 mi
5:30 PM25 °FScattered clouds.8 mph80%30.24 "Hg4 mi
5:00 PM28 °FScattered clouds.10 mph74%30.24 "Hg4 mi
4:30 PM28 °FScattered clouds.8 mph74%30.24 "Hg4 mi
4:00 PM28 °FScattered clouds.10 mph80%30.24 "Hg4 mi
3:30 PM30 °FScattered clouds.13 mph75%30.21 "Hg4 mi
3:00 PM30 °FScattered clouds.10 mph75%30.21 "Hg4 mi
2:30 PM28 °FBroken clouds.10 mph80%30.21 "Hg4 mi
2:00 PM28 °FBroken clouds.10 mph80%30.21 "Hg4 mi
Weather by CustomWeather, © 2015

See weather overviewHow to use our weather pages